User: anonymous   Login
Location: Unspecified
(0.0000°N, 0.0000°E)
Time: 00:40:51
(UTC+01:00)
Language:

Cosmos 1782 Rocket - Orbit

View from above orbital plane
View from above orbital plane
View from above satellite
View from above satellite

Ground track
Ground track

The orbit data is extracted from the following two-line orbital elements,

1 16987U 86074B   14325.90179542  .00000694  00000-0  83201-4 0  5227
2 16987 082.5158 108.9665 0019828 110.7651 003.1776 14.82544191519420
Epoch (UTC): 21 November 2014 21:38:35
Eccentricity: 0.0019828
inclination: 82.5158°
perigee height: 607 km
apogee height: 635 km
right ascension of ascending node: 108.9665°
argument of perigee: 110.7651°
revolutions per day: 14.82544191
mean anomaly at epoch: 3.1776°
orbit number at epoch: 51942

The dashed part of the orbit path shows where the satellite is in the earth's shadow,  

DLR